Location: Anton
(37.3520°N, 87.3947°W)
Time: 12:51:18
(UTC+00:00)

Tiangong - Visible Passes

Search period start: 01 December 2022 00:00
Search period end: 11 December 2022 00:00
Orbit: 385 x 393 km, 41.5° (Epoch: 01 December)

Date Brightness Start Highest point End Pass type
(mag) Time Alt. Az. Time Alt. Az. Time Alt. Az.
01 Dec 0.5 00:47:52 10° W 00:49:05 20° W 00:49:05 20° W visible
01 Dec -2.0 23:49:34 10° WSW 23:52:44 68° NNW 23:53:41 40° NE visible
03 Dec -0.4 00:28:34 10° WNW 00:30:32 29° NW 00:30:32 29° NW visible
03 Dec -1.6 23:30:08 10° W 23:33:12 47° NNW 23:35:01 21° NE visible
05 Dec -1.1 00:09:03 10° WNW 00:11:45 36° NNW 00:11:45 36° NNW visible
05 Dec -1.3 23:10:33 10° WNW 23:13:33 38° N 23:16:11 13° ENE visible
06 Dec 0.7 00:47:42 10° WNW 00:48:29 16° WNW 00:48:29 16° WNW visible
06 Dec -1.5 23:49:16 10° WNW 23:52:18 40° N 23:52:55 35° NE visible
08 Dec -0.6 00:27:43 10° WNW 00:29:40 34° WNW 00:29:40 34° WNW visible
08 Dec -1.8 23:29:13 10° WNW 23:32:20 51° NNE 23:34:11 21° E visible
09 Dec 1.4 01:06:14 10° W 01:06:30 12° W 01:06:30 12° W visible
10 Dec -2.0 00:07:34 10° WNW 00:10:44 67° SSW 00:11:07 59° SSE visible
10 Dec -2.2 23:08:58 10° WNW 23:12:08 76° NNE 23:15:19 10° ESE visible
